Terug naar catalogus

TIANMU-1 21

ActiefWeerSSO
NORAD 58662·PAYLOAD·🇨🇳 China

Gelanceerd Dec 27, 2023 vanaf Jiuquan Satellite Launch Center

Loading…

Volgende Passages (komende 24 uur)

TLE

VersSource: Space-Track

Epoch: Sep 14, 2026, 13:46 UTC

1 58662U 23208C   26257.57369477  .00007759  00000-0  21981-3 0  9994
2 58662  97.4590  18.2623 0006778   8.5355 351.6003 15.36533331151287

Volg TIANMU-1 21 in realtime met AllMySat

Download on the App Store